#timestamp,LO_Frequency,Hit,StdDev 
1514768415.2,286046995.1,N
1514768435.0,286046997.6,N
1514768435.9,286046997.6,N
1514768455.8,286046996.5,N
1514768475.6,286046999.7,N
1514768495.4,286047000.8,N
1514768515.3,286047003.1,N
1514768535.1,286047005.6,N
1514768555.8,286047008.1,Y
1514768575.7,286047006.3,P
1514768595.5,286047006.5,N
1514768615.3,286047007.5,N
1514768635.2,286047006.9,N
1514768655.9,286047007.4,N
1514768675.7,286047008.9,Y
1514768695.6,286047001.5,P
1514768715.4,286047001.9,N
1514768735.2,286047004.4,N
1514768755.1,286047003.1,N
1514768756.0,286047003.1,N
1514768775.8,286047002.0,N
1514768795.6,286047003.0,N
1514768815.5,286047003.1,N
1514768835.3,286047004.6,Y
1514768855.1,286047001.9,P
1514768875.9,286047003.9,P
1514768895.7,286047006.9,P
1514768915.5,286047007.4,Y
1514768935.4,286046999.8,P
1514768955.2,286046996.7,N
1514768975.0,286046996.1,N
1514768975.9,286046996.1,N
1514768995.8,286046994.3,N
1514769015.6,286046994.4,N
1514769035.4,286046993.1,N
1514769055.3,286046994.1,N
1514769075.1,286046998.5,N
1514769076.0,286046998.5,N
1514769095.8,286046997.6,N
1514769115.6,286046997.6,N
1514769135.5,286046995.4,N
1514769155.3,286046993.5,N
1514769175.1,286046992.1,N
1514769195.9,286046992.1,N
1514769215.7,286046993.7,N
1514769235.5,286046992.4,N
1514769255.4,286046992.8,N
1514769275.2,286046990.9,Y
1514769295.0,286046994.2,P
1514769295.9,286046994.2,P
1514769315.8,286046992.0,P
1514769335.6,286046989.1,Y
1514769355.4,286046995.5,P
1514769375.3,286046997.7,P
1514769395.1,286046994.9,P
1514769396.0,286046994.9,Y
1514769415.8,286046999.3,P
1514769435.7,286046999.6,N
1514769455.5,286046997.7,N
1514769475.3,286046996.7,N
1514769495.2,286046997.5,N
1514769515.9,286047001.6,N
1514769535.7,286047001.5,N
1514769555.6,286047000.5,N
1514769575.4,286047003.1,N
1514769595.2,286047003.5,N
1514769615.0,286047003.5,N
1514769616.0,286047003.5,N
1514769635.8,286047000.6,N
1514769655.6,286047000.1,N
1514769675.4,286047003.2,N
1514769695.3,286047002.0,N
1514769715.1,286047002.7,N
1514769735.8,286047002.0,N
1514769755.7,286046999.1,N
1514769775.5,286046999.7,N
1514769795.3,286047001.0,N
1514769815.2,286047001.9,N
1514769835.9,286046999.9,N
1514769855.7,286047000.9,N
1514769875.6,286046998.1,N
1514769895.4,286047000.6,N
1514769915.2,286047001.0,N
1514769935.0,286047004.1,N
1514769936.0,286047004.1,N
1514769955.8,286047005.9,N
1514769975.6,286047003.5,N
1514769995.4,286047006.1,N
1514770015.3,286047004.6,N
1514770035.1,286047004.0,N
1514770055.8,286047003.7,N
1514770075.7,286047003.4,N
1514770095.5,286047003.6,N
1514770115.3,286047003.6,N
1514770135.2,286047001.0,N
1514770155.9,286046998.8,N
1514770175.7,286047000.6,N
1514770195.6,286047003.7,N
1514770215.4,286047001.5,N
1514770235.2,286047002.6,N
1514770255.1,286047002.3,N
1514770256.0,286047002.3,N
1514770275.8,286047002.4,N
1514770295.6,286046998.7,N
1514770315.4,286046998.8,N
1514770335.3,286047000.6,N
1514770355.1,286047003.1,N
1514770375.8,286047000.6,N
1514770395.7,286047003.1,N
1514770415.5,286047003.5,N
1514770435.3,286047007.5,Y
1514770455.2,286047003.3,P
1514770475.0,286047000.7,N
1514770475.9,286047000.7,N
1514770495.7,286046998.5,N
1514770515.6,286047001.3,N
1514770535.4,286047003.5,N
1514770555.2,286047006.5,Y
1514770575.1,286047007.4,P
1514770576.0,286047007.4,N
1514770595.8,286047006.4,N
1514770615.7,286047009.5,Y
1514770635.5,286047004.1,P
1514770655.3,286047004.6,P
1514770675.1,286047006.4,P
1514770695.9,286047006.2,Y
1514770715.7,286047001.9,P
1514770735.5,286047000.6,N
1514770755.4,286047000.5,N
1514770775.2,286047000.5,N
1514770795.0,286046996.6,N
1514770795.9,286046996.6,N
1514770815.8,286047000.7,N
1514770835.6,286046998.1,N
1514770855.4,286047000.2,N
1514770875.3,286046998.3,N
1514770895.1,286047000.8,N
1514770896.0,286047000.8,N
1514770915.8,286047002.6,N
1514770935.7,286047002.5,N
1514770955.5,286047002.8,N
1514770975.3,286046998.3,N
1514770995.2,286046999.8,N
1514771015.9,286047003.8,N
1514771035.7,286047002.5,N
1514771055.5,286047000.4,N
1514771075.4,286047002.8,N
1514771095.2,286046999.8,N
1514771115.0,286046999.6,N
1514771115.9,286046999.6,N
1514771135.8,286046999.0,N
1514771155.6,286047002.3,N
1514771175.4,286047000.8,N
1514771195.3,286047004.4,N
1514771215.1,286047003.9,N
1514771235.8,286047001.9,N
1514771255.7,286047000.4,N
1514771275.5,286046999.7,N
1514771295.3,286046998.5,N
1514771315.2,286047001.2,N
1514771335.9,286046998.3,N
1514771355.7,286046996.8,N
1514771375.6,286046997.6,N
1514771395.4,286046999.1,N
1514771415.2,286046998.6,N
1514771435.0,286046995.2,N
1514771435.9,286046995.2,N
1514771455.8,286046996.7,N
1514771475.6,286047001.1,N
1514771495.4,286047001.8,N
1514771515.3,286047000.8,N
1514771535.1,286047000.1,N
1514771555.8,286047000.6,N
1514771575.7,286047004.2,N
1514771595.5,286047001.4,N
1514771615.3,286047000.1,N
1514771635.2,286047002.8,N
1514771655.9,286047002.1,N
1514771675.7,286046998.1,N
1514771695.6,286047000.7,N
1514771715.4,286047002.7,N
1514771735.2,286047000.6,N
1514771755.0,286046999.1,N
1514771756.0,286046999.1,N
1514771775.8,286047000.6,N
1514771795.6,286047001.4,N
1514771815.4,286047002.8,N
1514771835.3,286046998.1,N
1514771855.1,286047000.6,N
1514771875.8,286046995.7,N
1514771895.7,286046994.1,N
1514771915.5,286046994.3,N
1514771935.3,286046993.7,N
1514771955.2,286046990.2,Y
1514771975.9,286046990.6,P
1514771995.7,286046990.2,N
